Time,TemperatureF,DewpointF,PressureIn,WindDirection,WindDirectionDegrees,WindSpeedMPH,WindSpeedGustMPH,Humidity,HourlyPrecipIn,Conditions,Clouds,dailyrainin,SoftwareType,DateUTC
2013-01-23 00:05:00,4.9,1.6,30.36,West,276,2.0,2.0,86,0.00,,,0.00,Wunderground v.1.15,2013-01-23 05:05:00,
2013-01-23 00:10:00,5.1,2.1,30.36,West,270,2.0,2.0,87,0.00,,,0.00,Wunderground v.1.15,2013-01-23 05:10:00,
2013-01-23 00:20:00,5.1,1.8,30.36,WSW,255,2.0,4.0,86,0.00,,,0.00,Wunderground v.1.15,2013-01-23 05:20:00,
2013-01-23 00:25:00,5.1,1.8,30.36,West,278,2.0,4.0,86,0.00,,,0.00,Wunderground v.1.15,2013-01-23 05:25:00,
2013-01-23 00:30:00,5.2,1.9,30.36,WSW,243,2.0,7.0,86,0.00,,,0.00,Wunderground v.1.15,2013-01-23 05:30:00,
2013-01-23 00:35:00,5.2,1.9,30.36,West,260,2.0,7.0,86,0.00,,,0.00,Wunderground v.1.15,2013-01-23 05:35:00,
2013-01-23 00:40:00,5.1,1.8,30.35,SW,221,2.0,3.0,86,0.00,,,0.00,Wunderground v.1.15,2013-01-23 05:40:00,
2013-01-23 00:45:00,5.1,1.8,30.35,WSW,258,2.0,3.0,86,0.00,,,0.00,Wunderground v.1.15,2013-01-23 05:45:00,
2013-01-23 00:50:00,5.1,2.1,30.35,South,174,2.0,2.0,87,0.00,,,0.00,Wunderground v.1.15,2013-01-23 05:50:00,
2013-01-23 00:55:00,5.1,2.1,30.35,West,260,2.0,2.0,87,0.00,,,0.00,Wunderground v.1.15,2013-01-23 05:55:00,
2013-01-23 01:05:00,5.0,2.0,30.35,WSW,257,1.0,2.0,87,0.00,,,0.00,Wunderground v.1.15,2013-01-23 06:05:00,
2013-01-23 01:10:00,5.0,2.0,30.35,WSW,242,1.0,2.0,87,0.00,,,0.00,Wunderground v.1.15,2013-01-23 06:10:00,
2013-01-23 01:15:00,5.0,2.0,30.35,SW,219,1.0,2.0,87,0.00,,,0.00,Wunderground v.1.15,2013-01-23 06:15:00,
2013-01-23 01:20:00,4.9,1.9,30.35,WNW,288,1.0,2.0,87,0.00,,,0.00,Wunderground v.1.15,2013-01-23 06:20:00,
2013-01-23 01:25:00,4.8,1.8,30.35,West,267,1.0,2.0,87,0.00,,,0.00,Wunderground v.1.15,2013-01-23 06:25:00,
2013-01-23 01:30:00,4.7,1.7,30.34,WSW,245,1.0,1.0,87,0.00,,,0.00,Wunderground v.1.15,2013-01-23 06:30:00,
2013-01-23 01:35:00,4.6,1.6,30.34,WSW,243,1.0,2.0,87,0.00,,,0.00,Wunderground v.1.15,2013-01-23 06:35:00,
2013-01-23 01:40:00,4.6,1.6,30.34,WNW,298,1.0,1.0,87,0.00,,,0.00,Wunderground v.1.15,2013-01-23 06:40:00,
2013-01-23 01:45:00,4.6,1.6,30.34,West,260,2.0,2.0,87,0.00,,,0.00,Wunderground v.1.15,2013-01-23 06:45:00,
2013-01-23 01:55:00,4.5,1.5,30.35,WNW,300,1.0,2.0,87,0.00,,,0.00,Wunderground v.1.15,2013-01-23 06:55:00,
2013-01-23 02:00:00,4.3,1.3,30.35,WNW,295,1.0,2.0,87,0.00,,,0.00,Wunderground v.1.15,2013-01-23 07:00:00,
2013-01-23 02:10:00,4.0,1.0,30.34,WNW,295,1.0,1.0,87,0.00,,,0.00,Wunderground v.1.15,2013-01-23 07:10:00,
2013-01-23 02:15:00,4.0,1.2,30.34,West,263,1.0,2.0,88,0.00,,,0.00,Wunderground v.1.15,2013-01-23 07:15:00,
2013-01-23 02:20:00,4.0,1.0,30.34,SW,236,1.0,1.0,87,0.00,,,0.00,Wunderground v.1.15,2013-01-23 07:20:00,
2013-01-23 02:30:00,4.0,1.0,30.34,WSW,249,1.0,1.0,87,0.00,,,0.00,Wunderground v.1.15,2013-01-23 07:30:00,
2013-01-23 02:35:00,4.0,1.0,30.34,West,276,0.0,1.0,87,0.00,,,0.00,Wunderground v.1.15,2013-01-23 07:35:00,
2013-01-23 02:40:00,4.0,1.0,30.34,WSW,253,1.0,1.0,87,0.00,,,0.00,Wunderground v.1.15,2013-01-23 07:40:00,
2013-01-23 02:45:00,3.9,0.9,30.34,SW,236,0.0,1.0,87,0.00,,,0.00,Wunderground v.1.15,2013-01-23 07:45:00,
2013-01-23 02:50:00,4.0,1.2,30.34,West,267,0.0,0.0,88,0.00,,,0.00,Wunderground v.1.15,2013-01-23 07:50:00,
2013-01-23 03:00:00,4.1,1.3,30.34,WSW,250,0.0,0.0,88,0.00,,,0.00,Wunderground v.1.15,2013-01-23 08:00:00,
2013-01-23 03:10:00,4.2,1.2,30.34,NW,314,0.0,0.0,87,0.00,,,0.00,Wunderground v.1.15,2013-01-23 08:10:00,
2013-01-23 03:15:00,4.3,1.3,30.34,WNW,291,0.0,0.0,87,0.00,,,0.00,Wunderground v.1.15,2013-01-23 08:15:00,
2013-01-23 03:20:00,4.0,1.0,30.34,WSW,253,0.0,0.0,87,0.00,,,0.00,Wunderground v.1.15,2013-01-23 08:20:00,
2013-01-23 03:25:00,3.8,0.8,30.34,WSW,243,0.0,0.0,87,0.00,,,0.00,Wunderground v.1.15,2013-01-23 08:25:00,
2013-01-23 03:35:00,3.7,0.9,30.35,West,262,0.0,0.0,88,0.00,,,0.00,Wunderground v.1.15,2013-01-23 08:35:00,
2013-01-23 03:40:00,3.6,0.8,30.35,West,264,0.0,0.0,88,0.00,,,0.00,Wunderground v.1.15,2013-01-23 08:40:00,
2013-01-23 03:45:00,3.7,0.9,30.35,West,259,0.0,1.0,88,0.00,,,0.00,Wunderground v.1.15,2013-01-23 08:45:00,
2013-01-23 03:50:00,3.7,0.9,30.35,WSW,242,0.0,0.0,88,0.00,,,0.00,Wunderground v.1.15,2013-01-23 08:50:00,
2013-01-23 03:55:00,3.8,1.0,30.35,WSW,255,0.0,0.0,88,0.00,,,0.00,Wunderground v.1.15,2013-01-23 08:55:00,
2013-01-23 04:00:00,3.8,1.0,30.34,West,262,0.0,0.0,88,0.00,,,0.00,Wunderground v.1.15,2013-01-23 09:00:00,
2013-01-23 04:10:00,3.9,0.9,30.34,WNW,287,0.0,0.0,87,0.00,,,0.00,Wunderground v.1.15,2013-01-23 09:10:00,
2013-01-23 04:15:00,3.8,0.8,30.34,West,281,0.0,0.0,87,0.00,,,0.00,Wunderground v.1.15,2013-01-23 09:15:00,
2013-01-23 04:20:00,3.9,1.1,30.34,West,264,1.0,2.0,88,0.00,,,0.00,Wunderground v.1.15,2013-01-23 09:20:00,
2013-01-23 04:25:00,3.9,1.1,30.34,West,281,1.0,2.0,88,0.00,,,0.00,Wunderground v.1.15,2013-01-23 09:25:00,
2013-01-23 04:30:00,4.0,1.0,30.34,West,273,0.0,2.0,87,0.00,,,0.00,Wunderground v.1.15,2013-01-23 09:30:00,
2013-01-23 04:40:00,4.2,1.2,30.34,West,263,0.0,0.0,87,0.00,,,0.00,Wunderground v.1.15,2013-01-23 09:40:00,
2013-01-23 04:45:00,4.3,1.3,30.34,WNW,289,1.0,1.0,87,0.00,,,0.00,Wunderground v.1.15,2013-01-23 09:45:00,
2013-01-23 04:50:00,4.4,1.4,30.34,WSW,250,1.0,1.0,87,0.00,,,0.00,Wunderground v.1.15,2013-01-23 09:50:00,
2013-01-23 04:55:00,4.4,1.1,30.33,WSW,238,0.0,1.0,86,0.00,,,0.00,Wunderground v.1.15,2013-01-23 09:55:00,
2013-01-23 05:00:00,4.5,1.5,30.33,SW,236,0.0,0.0,87,0.00,,,0.00,Wunderground v.1.15,2013-01-23 10:00:00,
2013-01-23 05:10:00,4.6,1.3,30.33,WSW,245,0.0,1.0,86,0.00,,,0.00,Wunderground v.1.15,2013-01-23 10:10:00,
2013-01-23 05:15:00,4.6,1.3,30.33,SW,236,0.0,1.0,86,0.00,,,0.00,Wunderground v.1.15,2013-01-23 10:15:00,
2013-01-23 05:20:00,4.7,1.4,30.33,West,268,0.0,0.0,86,0.00,,,0.00,Wunderground v.1.15,2013-01-23 10:20:00,
2013-01-23 05:25:00,4.8,1.5,30.33,WSW,252,0.0,0.0,86,0.00,,,0.00,Wunderground v.1.15,2013-01-23 10:25:00,
2013-01-23 05:30:00,4.8,1.5,30.33,WSW,251,0.0,0.0,86,0.00,,,0.00,Wunderground v.1.15,2013-01-23 10:30:00,
2013-01-23 05:35:00,4.9,1.6,30.33,West,266,0.0,1.0,86,0.00,,,0.00,Wunderground v.1.15,2013-01-23 10:35:00,
2013-01-23 05:40:00,5.0,1.7,30.33,WSW,256,0.0,0.0,86,0.00,,,0.00,Wunderground v.1.15,2013-01-23 10:40:00,
2013-01-23 05:45:00,5.2,1.7,30.33,South,176,1.0,1.0,85,0.00,,,0.00,Wunderground v.1.15,2013-01-23 10:45:00,
2013-01-23 05:50:00,5.4,1.9,30.33,WSW,248,1.0,1.0,85,0.00,,,0.00,Wunderground v.1.15,2013-01-23 10:50:00,
2013-01-23 05:55:00,5.6,2.1,30.33,SW,231,1.0,1.0,85,0.00,,,0.00,Wunderground v.1.15,2013-01-23 10:55:00,
2013-01-23 06:00:00,5.8,2.0,30.33,West,281,2.0,2.0,84,0.00,,,0.00,Wunderground v.1.15,2013-01-23 11:00:00,
2013-01-23 06:10:00,6.2,2.1,30.33,SW,229,2.0,4.0,83,0.00,,,0.00,Wunderground v.1.15,2013-01-23 11:10:00,
2013-01-23 06:15:00,6.5,2.2,30.33,West,264,3.0,4.0,82,0.00,,,0.00,Wunderground v.1.15,2013-01-23 11:15:00,
2013-01-23 06:20:00,6.7,2.1,30.33,West,264,3.0,3.0,81,0.00,,,0.00,Wunderground v.1.15,2013-01-23 11:20:00,
2013-01-23 06:25:00,6.8,2.2,30.33,WSW,249,3.0,4.0,81,0.00,,,0.00,Wunderground v.1.15,2013-01-23 11:25:00,
2013-01-23 06:30:00,6.9,2.0,30.33,WSW,257,3.0,3.0,80,0.00,,,0.00,Wunderground v.1.15,2013-01-23 11:30:00,
2013-01-23 06:35:00,7.0,2.1,30.33,WNW,284,3.0,3.0,80,0.00,,,0.00,Wunderground v.1.15,2013-01-23 11:35:00,
2013-01-23 06:45:00,7.2,2.3,30.33,West,271,3.0,3.0,80,0.00,,,0.00,Wunderground v.1.15,2013-01-23 11:45:00,
2013-01-23 06:50:00,7.3,2.4,30.33,SW,229,4.0,5.0,80,0.00,,,0.00,Wunderground v.1.15,2013-01-23 11:50:00,
2013-01-23 06:55:00,7.3,2.4,30.33,NW,307,4.0,5.0,80,0.00,,,0.00,Wunderground v.1.15,2013-01-23 11:55:00,
2013-01-23 07:00:00,7.4,2.3,30.33,SSW,207,4.0,4.0,79,0.00,,,0.00,Wunderground v.1.15,2013-01-23 12:00:00,
2013-01-23 07:10:00,7.6,2.4,30.33,SW,224,3.0,3.0,79,0.00,,,0.00,Wunderground v.1.15,2013-01-23 12:10:00,
2013-01-23 07:20:00,7.7,2.0,30.33,SW,219,3.0,3.0,77,0.00,,,0.00,Wunderground v.1.15,2013-01-23 12:20:00,
2013-01-23 07:25:00,7.8,2.1,30.33,SSW,195,4.0,4.0,77,0.00,,,0.00,Wunderground v.1.15,2013-01-23 12:25:00,
2013-01-23 07:30:00,7.8,2.1,30.33,SW,217,4.0,4.0,77,0.00,,,0.00,Wunderground v.1.15,2013-01-23 12:30:00,
2013-01-23 07:35:00,7.8,1.8,30.33,SW,236,3.0,4.0,76,0.00,,,0.00,Wunderground v.1.15,2013-01-23 12:35:00,
2013-01-23 07:40:00,7.9,1.6,30.33,SW,224,3.0,5.0,75,0.00,,,0.00,Wunderground v.1.15,2013-01-23 12:40:00,
2013-01-23 07:50:00,8.0,1.4,30.33,SW,232,4.0,4.0,74,0.00,,,0.00,Wunderground v.1.15,2013-01-23 12:50:00,
2013-01-23 07:55:00,8.0,1.4,30.33,SW,219,3.0,4.0,74,0.00,,,0.00,Wunderground v.1.15,2013-01-23 12:55:00,
2013-01-23 08:00:00,8.1,1.5,30.32,SW,226,3.0,3.0,74,0.00,,,0.00,Wunderground v.1.15,2013-01-23 13:00:00,
2013-01-23 08:10:00,8.1,1.5,30.32,SW,233,3.0,3.0,74,0.00,,,0.00,Wunderground v.1.15,2013-01-23 13:10:00,
2013-01-23 08:15:00,8.1,1.5,30.32,WSW,245,4.0,4.0,74,0.00,,,0.00,Wunderground v.1.15,2013-01-23 13:15:00,
2013-01-23 08:25:00,8.2,1.6,30.31,SW,225,4.0,4.0,74,0.00,,,0.00,Wunderground v.1.15,2013-01-23 13:25:00,
2013-01-23 08:30:00,8.2,1.6,30.31,South,179,3.0,5.0,74,0.00,,,0.00,Wunderground v.1.15,2013-01-23 13:30:00,
2013-01-23 08:35:00,8.3,1.4,30.31,SW,232,4.0,5.0,73,0.00,,,0.00,Wunderground v.1.15,2013-01-23 13:35:00,
2013-01-23 08:40:00,8.4,1.5,30.31,WSW,238,5.0,5.0,73,0.00,,,0.00,Wunderground v.1.15,2013-01-23 13:40:00,
2013-01-23 08:45:00,8.5,1.3,30.31,West,262,5.0,5.0,72,0.00,,,0.00,Wunderground v.1.15,2013-01-23 13:45:00,
2013-01-23 08:55:00,8.8,1.6,30.32,SSW,211,3.0,4.0,72,0.00,,,0.00,Wunderground v.1.15,2013-01-23 13:55:00,
2013-01-23 09:00:00,8.9,1.7,30.31,SW,230,3.0,3.0,72,0.00,,,0.00,Wunderground v.1.15,2013-01-23 14:00:00,
2013-01-23 09:10:00,9.2,1.7,30.31,SSW,194,4.0,4.0,71,0.00,,,0.00,Wunderground v.1.15,2013-01-23 14:10:00,
2013-01-23 09:15:00,9.3,1.8,30.31,WSW,246,4.0,5.0,71,0.00,,,0.00,Wunderground v.1.15,2013-01-23 14:15:00,
2013-01-23 09:20:00,9.4,1.6,30.31,SW,236,4.0,7.0,70,0.00,,,0.00,Wunderground v.1.15,2013-01-23 14:20:00,
2013-01-23 09:30:00,9.7,1.6,30.31,SSW,199,5.0,5.0,69,0.00,,,0.00,Wunderground v.1.15,2013-01-23 14:30:00,
2013-01-23 09:35:00,9.8,1.7,30.32,West,276,5.0,5.0,69,0.00,,,0.00,Wunderground v.1.15,2013-01-23 14:35:00,
2013-01-23 09:40:00,9.9,1.8,30.31,WSW,242,5.0,5.0,69,0.00,,,0.00,Wunderground v.1.15,2013-01-23 14:40:00,
2013-01-23 09:45:00,10.0,1.9,30.31,WSW,242,4.0,5.0,69,0.00,,,0.00,Wunderground v.1.15,2013-01-23 14:45:00,
2013-01-23 09:50:00,10.2,2.0,30.31,SW,219,4.0,4.0,69,0.00,,,0.00,Wunderground v.1.15,2013-01-23 14:50:00,
2013-01-23 10:00:00,10.4,1.9,30.31,WSW,253,5.0,6.0,68,0.00,,,0.00,Wunderground v.1.15,2013-01-23 15:00:00,
2013-01-23 10:10:00,10.7,2.2,30.31,WSW,245,5.0,5.0,68,0.00,,,0.00,Wunderground v.1.15,2013-01-23 15:10:00,
2013-01-23 10:15:00,10.8,2.0,30.31,SE,141,6.0,6.0,67,0.00,,,0.00,Wunderground v.1.15,2013-01-23 15:15:00,
2013-01-23 10:20:00,10.9,2.1,30.31,SW,214,6.0,6.0,67,0.00,,,0.00,Wunderground v.1.15,2013-01-23 15:20:00,
2013-01-23 10:25:00,11.1,2.6,30.31,WSW,256,5.0,6.0,68,0.00,,,0.00,Wunderground v.1.15,2013-01-23 15:25:00,
2013-01-23 10:35:00,11.5,2.0,30.31,SW,231,6.0,7.0,65,0.00,,,0.00,Wunderground v.1.15,2013-01-23 15:35:00,
2013-01-23 10:40:00,11.5,2.0,30.31,SSW,209,6.0,6.0,65,0.00,,,0.00,Wunderground v.1.15,2013-01-23 15:40:00,
2013-01-23 10:45:00,11.6,2.1,30.31,SW,223,7.0,8.0,65,0.00,,,0.00,Wunderground v.1.15,2013-01-23 15:45:00,
2013-01-23 10:50:00,11.7,2.2,30.31,WNW,282,6.0,7.0,65,0.00,,,0.00,Wunderground v.1.15,2013-01-23 15:50:00,
2013-01-23 10:55:00,11.8,2.3,30.31,SW,236,6.0,7.0,65,0.00,,,0.00,Wunderground v.1.15,2013-01-23 15:55:00,
2013-01-23 11:00:00,11.8,2.3,30.31,SW,224,7.0,7.0,65,0.00,,,0.00,Wunderground v.1.15,2013-01-23 16:00:00,
2013-01-23 11:10:00,12.1,2.6,30.31,WSW,238,6.0,8.0,65,0.00,,,0.00,Wunderground v.1.15,2013-01-23 16:10:00,
2013-01-23 11:15:00,12.1,2.6,30.31,SW,226,7.0,8.0,65,0.00,,,0.00,Wunderground v.1.15,2013-01-23 16:15:00,
2013-01-23 11:20:00,12.2,2.7,30.31,SW,222,6.0,6.0,65,0.00,,,0.00,Wunderground v.1.15,2013-01-23 16:20:00,
2013-01-23 11:25:00,12.4,2.9,30.31,SW,225,5.0,6.0,65,0.00,,,0.00,Wunderground v.1.15,2013-01-23 16:25:00,
2013-01-23 11:35:00,12.5,3.0,30.31,SW,231,6.0,6.0,65,0.00,,,0.00,Wunderground v.1.15,2013-01-23 16:35:00,
2013-01-23 11:40:00,12.8,3.2,30.31,WSW,250,6.0,6.0,65,0.00,,,0.00,Wunderground v.1.15,2013-01-23 16:40:00,
2013-01-23 11:45:00,12.9,3.0,30.30,SW,236,5.0,7.0,64,0.00,,,0.00,Wunderground v.1.15,2013-01-23 16:45:00,
2013-01-23 11:50:00,12.9,3.3,30.30,SSW,203,6.0,6.0,65,0.00,,,0.00,Wunderground v.1.15,2013-01-23 16:50:00,
2013-01-23 11:55:00,13.0,3.4,30.30,SW,223,6.0,14.0,65,0.00,,,0.00,Wunderground v.1.15,2013-01-23 16:55:00,
2013-01-23 12:00:00,13.1,3.2,30.30,WSW,242,6.0,9.0,64,0.00,,,0.00,Wunderground v.1.15,2013-01-23 17:00:00,
2013-01-23 12:10:00,13.2,3.6,30.29,SW,230,7.0,9.0,65,0.00,,,0.00,Wunderground v.1.15,2013-01-23 17:10:00,
2013-01-23 12:15:00,13.3,3.7,30.29,West,259,6.0,9.0,65,0.00,,,0.00,Wunderground v.1.15,2013-01-23 17:15:00,
2013-01-23 12:20:00,13.4,3.8,30.28,WSW,255,5.0,11.0,65,0.00,,,0.00,Wunderground v.1.15,2013-01-23 17:20:00,
2013-01-23 12:25:00,13.5,4.2,30.28,SW,223,6.0,11.0,66,0.00,,,0.00,Wunderground v.1.15,2013-01-23 17:25:00,
2013-01-23 12:30:00,13.5,4.6,30.27,SSE,159,6.0,6.0,67,0.00,,,0.00,Wunderground v.1.15,2013-01-23 17:30:00,
2013-01-23 12:40:00,13.8,4.9,30.27,SSW,197,4.0,4.0,67,0.00,,,0.00,Wunderground v.1.15,2013-01-23 17:40:00,
2013-01-23 12:45:00,13.7,4.4,30.27,SSW,193,6.0,6.0,66,0.00,,,0.00,Wunderground v.1.15,2013-01-23 17:45:00,
2013-01-23 12:50:00,13.6,4.3,30.26,SW,236,7.0,7.0,66,0.00,,,0.00,Wunderground v.1.15,2013-01-23 17:50:00,
2013-01-23 12:55:00,13.7,4.8,30.26,WSW,252,7.0,7.0,67,0.00,,,0.00,Wunderground v.1.15,2013-01-23 17:55:00,
2013-01-23 13:00:00,13.7,4.4,30.25,West,266,6.0,9.0,66,0.00,,,0.00,Wunderground v.1.15,2013-01-23 18:00:00,
2013-01-23 13:10:00,14.1,5.8,30.25,SW,214,5.0,5.0,69,0.00,,,0.00,Wunderground v.1.15,2013-01-23 18:10:00,
2013-01-23 13:15:00,14.1,5.5,30.24,WSW,239,5.0,8.0,68,0.00,,,0.00,Wunderground v.1.15,2013-01-23 18:15:00,
2013-01-23 13:20:00,14.3,5.7,30.24,SSW,208,6.0,6.0,68,0.00,,,0.00,Wunderground v.1.15,2013-01-23 18:20:00,
2013-01-23 13:25:00,14.3,5.7,30.24,WSW,250,6.0,6.0,68,0.00,,,0.00,Wunderground v.1.15,2013-01-23 18:25:00,
2013-01-23 13:30:00,14.4,5.8,30.24,SW,219,6.0,6.0,68,0.00,,,0.00,Wunderground v.1.15,2013-01-23 18:30:00,
2013-01-23 13:35:00,14.7,6.4,30.23,West,264,5.0,6.0,69,0.00,,,0.00,Wunderground v.1.15,2013-01-23 18:35:00,
2013-01-23 13:45:00,14.9,6.2,30.23,WSW,256,5.0,8.0,68,0.00,,,0.00,Wunderground v.1.15,2013-01-23 18:45:00,
2013-01-23 13:50:00,14.6,6.0,30.23,South,181,6.0,6.0,68,0.00,,,0.00,Wunderground v.1.15,2013-01-23 18:50:00,
2013-01-23 13:55:00,14.3,6.3,30.22,SW,231,7.0,10.0,70,0.00,,,0.00,Wunderground v.1.15,2013-01-23 18:55:00,
2013-01-23 14:00:00,14.5,6.8,30.22,SW,225,6.0,6.0,71,0.00,,,0.00,Wunderground v.1.15,2013-01-23 19:00:00,
2013-01-23 14:10:00,14.6,6.6,30.21,SW,232,5.0,5.0,70,0.00,,,0.00,Wunderground v.1.15,2013-01-23 19:10:00,
2013-01-23 14:20:00,14.3,6.9,30.20,WSW,249,6.0,6.0,72,0.00,,,0.00,Wunderground v.1.15,2013-01-23 19:20:00,
2013-01-23 14:25:00,14.4,7.0,30.20,SW,231,5.0,6.0,72,0.00,,,0.00,Wunderground v.1.15,2013-01-23 19:25:00,
2013-01-23 14:30:00,14.6,7.5,30.20,WSW,242,5.0,5.0,73,0.00,,,0.00,Wunderground v.1.15,2013-01-23 19:30:00,
2013-01-23 14:35:00,14.8,7.7,30.20,West,269,5.0,5.0,73,0.00,,,0.00,Wunderground v.1.15,2013-01-23 19:35:00,
2013-01-23 14:40:00,14.8,7.7,30.20,WSW,239,5.0,9.0,73,0.00,,,0.00,Wunderground v.1.15,2013-01-23 19:40:00,
2013-01-23 14:45:00,14.7,7.6,30.20,SW,229,6.0,9.0,73,0.00,,,0.00,Wunderground v.1.15,2013-01-23 19:45:00,
2013-01-23 14:55:00,14.5,7.4,30.19,SW,224,6.0,6.0,73,0.00,,,0.00,Wunderground v.1.15,2013-01-23 19:55:00,
2013-01-23 15:00:00,14.4,7.6,30.19,South,191,6.0,6.0,74,0.00,,,0.00,Wunderground v.1.15,2013-01-23 20:00:00,
2013-01-23 15:10:00,14.8,7.4,30.19,WSW,256,4.0,7.0,72,0.00,,,0.00,Wunderground v.1.15,2013-01-23 20:10:00,
2013-01-23 15:15:00,14.7,7.3,30.19,WSW,245,5.0,7.0,72,0.00,,,0.00,Wunderground v.1.15,2013-01-23 20:15:00,
2013-01-23 15:20:00,14.9,7.8,30.19,WSW,256,4.0,4.0,73,0.00,,,0.00,Wunderground v.1.15,2013-01-23 20:20:00,
2013-01-23 15:25:00,14.9,7.2,30.18,SSW,196,4.0,7.0,71,0.00,,,0.00,Wunderground v.1.15,2013-01-23 20:25:00,
2013-01-23 15:30:00,14.7,7.0,30.18,WNW,295,6.0,7.0,71,0.00,,,0.00,Wunderground v.1.15,2013-01-23 20:30:00,
2013-01-23 15:35:00,14.6,7.2,30.18,SW,226,7.0,7.0,72,0.00,,,0.00,Wunderground v.1.15,2013-01-23 20:35:00,
2013-01-23 15:40:00,14.7,7.3,30.18,West,279,5.0,5.0,72,0.00,,,0.00,Wunderground v.1.15,2013-01-23 20:40:00,
2013-01-23 15:45:00,14.8,7.1,30.18,SW,217,4.0,5.0,71,0.00,,,0.00,Wunderground v.1.15,2013-01-23 20:45:00,
2013-01-23 15:55:00,15.0,6.7,30.18,WSW,249,5.0,7.0,69,0.00,,,0.00,Wunderground v.1.15,2013-01-23 20:55:00,
2013-01-23 16:00:00,14.9,6.6,30.18,WSW,256,5.0,5.0,69,0.00,,,0.00,Wunderground v.1.15,2013-01-23 21:00:00,
2013-01-23 16:10:00,15.0,6.3,30.17,WNW,283,5.0,5.0,68,0.00,,,0.00,Wunderground v.1.15,2013-01-23 21:10:00,
2013-01-23 16:15:00,14.9,6.6,30.17,West,274,5.0,5.0,69,0.00,,,0.00,Wunderground v.1.15,2013-01-23 21:15:00,
2013-01-23 16:25:00,14.9,6.9,30.17,SSW,212,4.0,6.0,70,0.00,,,0.00,Wunderground v.1.15,2013-01-23 21:25:00,
2013-01-23 16:30:00,14.9,7.2,30.17,SW,221,3.0,3.0,71,0.00,,,0.00,Wunderground v.1.15,2013-01-23 21:30:00,
2013-01-23 16:35:00,15.1,7.1,30.17,WSW,257,2.0,3.0,70,0.00,,,0.00,Wunderground v.1.15,2013-01-23 21:35:00,
2013-01-23 16:40:00,15.0,7.3,30.17,SW,229,3.0,3.0,71,0.00,,,0.00,Wunderground v.1.15,2013-01-23 21:40:00,
2013-01-23 16:45:00,15.0,7.3,30.16,SW,226,4.0,4.0,71,0.00,,,0.00,Wunderground v.1.15,2013-01-23 21:45:00,
2013-01-23 16:50:00,15.0,7.6,30.16,West,280,4.0,4.0,72,0.00,,,0.00,Wunderground v.1.15,2013-01-23 21:50:00,
2013-01-23 17:00:00,14.9,7.5,30.16,SW,229,3.0,3.0,72,0.00,,,0.00,Wunderground v.1.15,2013-01-23 22:00:00,
2013-01-23 17:10:00,15.1,8.0,30.16,WSW,239,3.0,3.0,73,0.00,,,0.00,Wunderground v.1.15,2013-01-23 22:10:00,
2013-01-23 17:15:00,15.0,7.9,30.15,SW,232,4.0,5.0,73,0.00,,,0.00,Wunderground v.1.15,2013-01-23 22:15:00,
2013-01-23 17:20:00,15.1,8.3,30.15,South,184,3.0,3.0,74,0.00,,,0.00,Wunderground v.1.15,2013-01-23 22:20:00,
2013-01-23 17:30:00,14.7,8.2,30.15,SW,224,5.0,5.0,75,0.00,,,0.00,Wunderground v.1.15,2013-01-23 22:30:00,
2013-01-23 17:35:00,14.5,8.0,30.15,SW,222,4.0,5.0,75,0.00,,,0.00,Wunderground v.1.15,2013-01-23 22:35:00,
2013-01-23 17:40:00,14.3,8.1,30.15,SW,225,4.0,4.0,76,0.00,,,0.00,Wunderground v.1.15,2013-01-23 22:40:00,
2013-01-23 17:45:00,14.1,7.9,30.15,WSW,256,3.0,4.0,76,0.00,,,0.00,Wunderground v.1.15,2013-01-23 22:45:00,
2013-01-23 17:50:00,14.0,8.1,30.15,SSW,208,3.0,3.0,77,0.00,,,0.00,Wunderground v.1.15,2013-01-23 22:50:00,
2013-01-23 17:55:00,13.9,8.0,30.15,WSW,256,2.0,3.0,77,0.00,,,0.00,Wunderground v.1.15,2013-01-23 22:55:00,
2013-01-23 18:00:00,13.9,8.3,30.15,SSW,203,2.0,2.0,78,0.00,,,0.00,Wunderground v.1.15,2013-01-23 23:00:00,
2013-01-23 18:10:00,13.7,8.4,30.15,SW,232,2.0,2.0,79,0.00,,,0.00,Wunderground v.1.15,2013-01-23 23:10:00,
2013-01-23 18:15:00,13.7,8.4,30.15,SW,229,2.0,2.0,79,0.00,,,0.00,Wunderground v.1.15,2013-01-23 23:15:00,
2013-01-23 18:20:00,13.7,8.4,30.14,SSW,212,2.0,3.0,79,0.00,,,0.00,Wunderground v.1.15,2013-01-23 23:20:00,
2013-01-23 18:25:00,13.6,8.6,30.14,WSW,246,3.0,4.0,80,0.00,,,0.00,Wunderground v.1.15,2013-01-23 23:25:00,
2013-01-23 18:35:00,13.7,9.2,30.14,SW,232,4.0,4.0,82,0.00,,,0.00,Wunderground v.1.15,2013-01-23 23:35:00,
2013-01-23 18:40:00,13.7,9.5,30.14,WSW,248,4.0,5.0,83,0.00,,,0.00,Wunderground v.1.15,2013-01-23 23:40:00,
2013-01-23 18:45:00,13.6,9.4,30.14,SW,214,3.0,5.0,83,0.00,,,0.00,Wunderground v.1.15,2013-01-23 23:45:00,
2013-01-23 18:50:00,13.6,9.7,30.14,SSW,210,3.0,3.0,84,0.00,,,0.00,Wunderground v.1.15,2013-01-23 23:50:00,
2013-01-23 18:55:00,13.6,9.7,30.14,SSW,200,3.0,3.0,84,0.00,,,0.00,Wunderground v.1.15,2013-01-23 23:55:00,
2013-01-23 19:00:00,13.6,9.9,30.14,WSW,246,3.0,3.0,85,0.00,,,0.00,Wunderground v.1.15,2013-01-24 00:00:00,
2013-01-23 19:10:00,13.5,9.8,30.14,SW,219,3.0,3.0,85,0.00,,,0.00,Wunderground v.1.15,2013-01-24 00:10:00,
2013-01-23 19:15:00,13.4,10.0,30.13,SSW,204,2.0,3.0,86,0.00,,,0.00,Wunderground v.1.15,2013-01-24 00:15:00,
2013-01-23 19:20:00,13.4,10.0,30.13,SW,231,2.0,2.0,86,0.00,,,0.00,Wunderground v.1.15,2013-01-24 00:20:00,
2013-01-23 19:25:00,13.4,10.3,30.13,SSW,208,2.0,4.0,87,0.00,,,0.00,Wunderground v.1.15,2013-01-24 00:25:00,
2013-01-23 19:30:00,13.6,10.5,30.13,SSW,203,3.0,3.0,87,0.00,,,0.00,Wunderground v.1.15,2013-01-24 00:30:00,
2013-01-23 19:35:00,13.8,10.6,30.13,SW,221,4.0,7.0,87,0.00,,,0.00,Wunderground v.1.15,2013-01-24 00:35:00,
2013-01-23 19:40:00,13.9,10.7,30.13,SSW,213,4.0,4.0,87,0.00,,,0.00,Wunderground v.1.15,2013-01-24 00:40:00,
2013-01-23 19:45:00,14.0,10.8,30.13,SW,236,4.0,7.0,87,0.00,,,0.00,Wunderground v.1.15,2013-01-24 00:45:00,
2013-01-23 19:50:00,14.0,11.1,30.13,SW,214,5.0,6.0,88,0.00,,,0.00,Wunderground v.1.15,2013-01-24 00:50:00,
2013-01-23 19:55:00,14.1,11.2,30.12,WSW,241,4.0,6.0,88,0.00,,,0.00,Wunderground v.1.15,2013-01-24 00:55:00,
2013-01-23 20:00:00,14.1,11.2,30.12,WSW,241,4.0,4.0,88,0.00,,,0.00,Wunderground v.1.15,2013-01-24 01:00:00,
2013-01-23 20:10:00,14.2,11.6,30.12,SW,232,3.0,3.0,89,0.00,,,0.00,Wunderground v.1.15,2013-01-24 01:10:00,
2013-01-23 20:15:00,14.2,11.6,30.12,WSW,242,3.0,6.0,89,0.00,,,0.00,Wunderground v.1.15,2013-01-24 01:15:00,
2013-01-23 20:20:00,14.3,11.7,30.12,SSW,205,3.0,5.0,89,0.00,,,0.00,Wunderground v.1.15,2013-01-24 01:20:00,
2013-01-23 20:25:00,14.3,11.7,30.13,SW,233,4.0,5.0,89,0.00,,,0.00,Wunderground v.1.15,2013-01-24 01:25:00,
2013-01-23 20:30:00,14.4,12.0,30.12,South,177,3.0,3.0,90,0.00,,,0.00,Wunderground v.1.15,2013-01-24 01:30:00,
2013-01-23 20:35:00,14.4,12.0,30.12,SW,217,3.0,3.0,90,0.00,,,0.00,Wunderground v.1.15,2013-01-24 01:35:00,
2013-01-23 20:45:00,14.5,12.1,30.12,WSW,249,2.0,2.0,90,0.00,,,0.00,Wunderground v.1.15,2013-01-24 01:45:00,
2013-01-23 20:50:00,14.7,12.3,30.13,West,267,2.0,2.0,90,0.00,,,0.00,Wunderground v.1.15,2013-01-24 01:50:00,
2013-01-23 20:55:00,14.7,12.3,30.13,WSW,246,2.0,2.0,90,0.00,,,0.00,Wunderground v.1.15,2013-01-24 01:55:00,
2013-01-23 21:00:00,14.8,12.4,30.12,West,266,2.0,2.0,90,0.00,,,0.00,Wunderground v.1.15,2013-01-24 02:00:00,
2013-01-23 21:10:00,15.0,12.6,30.13,WSW,257,3.0,3.0,90,0.00,,,0.00,Wunderground v.1.15,2013-01-24 02:10:00,
2013-01-23 21:15:00,15.1,12.9,30.12,WNW,282,2.0,3.0,91,0.00,,,0.00,Wunderground v.1.15,2013-01-24 02:15:00,
2013-01-23 21:20:00,15.2,13.0,30.13,WSW,239,2.0,4.0,91,0.00,,,0.00,Wunderground v.1.15,2013-01-24 02:20:00,
2013-01-23 21:25:00,15.3,13.1,30.13,WNW,293,2.0,4.0,91,0.00,,,0.00,Wunderground v.1.15,2013-01-24 02:25:00,
2013-01-23 21:30:00,15.5,13.3,30.13,WNW,290,3.0,6.0,91,0.00,,,0.00,Wunderground v.1.15,2013-01-24 02:30:00,
2013-01-23 21:35:00,15.6,13.4,30.13,WNW,293,4.0,7.0,91,0.00,,,0.00,Wunderground v.1.15,2013-01-24 02:35:00,
2013-01-23 21:40:00,15.7,13.3,30.14,WNW,297,5.0,5.0,90,0.00,,,0.00,Wunderground v.1.15,2013-01-24 02:40:00,
2013-01-23 21:50:00,16.0,13.6,30.13,NW,312,6.0,6.0,90,0.00,,,0.00,Wunderground v.1.15,2013-01-24 02:50:00,
2013-01-23 21:55:00,16.0,13.6,30.14,NW,306,5.0,6.0,90,0.00,,,0.00,Wunderground v.1.15,2013-01-24 02:55:00,
2013-01-23 22:00:00,16.1,13.9,30.14,NW,318,4.0,5.0,91,0.00,,,0.00,Wunderground v.1.15,2013-01-24 03:00:00,
2013-01-23 22:10:00,16.4,14.2,30.14,NNW,332,5.0,5.0,91,0.00,,,0.00,Wunderground v.1.15,2013-01-24 03:10:00,
2013-01-23 22:20:00,16.4,14.2,30.14,NNW,328,4.0,8.0,91,0.00,,,0.00,Wunderground v.1.15,2013-01-24 03:20:00,
2013-01-23 22:25:00,16.4,14.0,30.14,North,10,5.0,8.0,90,0.00,,,0.00,Wunderground v.1.15,2013-01-24 03:25:00,
2013-01-23 22:30:00,16.4,14.0,30.15,NNW,345,6.0,6.0,90,0.00,,,0.00,Wunderground v.1.15,2013-01-24 03:30:00,
2013-01-23 22:35:00,16.5,13.8,30.16,North,359,6.0,6.0,89,0.00,,,0.00,Wunderground v.1.15,2013-01-24 03:35:00,
2013-01-23 22:40:00,16.5,13.8,30.16,NW,326,6.0,6.0,89,0.00,,,0.00,Wunderground v.1.15,2013-01-24 03:40:00,
2013-01-23 22:45:00,16.4,13.5,30.16,WNW,300,6.0,9.0,88,0.00,,,0.00,Wunderground v.1.15,2013-01-24 03:45:00,
2013-01-23 22:55:00,15.9,13.2,30.17,NNE,20,9.0,15.0,89,0.00,,,0.00,Wunderground v.1.15,2013-01-24 03:55:00,
2013-01-23 23:00:00,15.4,13.0,30.18,NNW,346,10.0,10.0,90,0.00,,,0.00,Wunderground v.1.15,2013-01-24 04:00:00,
2013-01-23 23:10:00,14.7,12.0,30.18,NNE,29,14.0,14.0,89,0.00,,,0.00,Wunderground v.1.15,2013-01-24 04:10:00,
2013-01-23 23:15:00,14.2,11.6,30.19,North,357,16.0,19.0,89,0.00,,,0.00,Wunderground v.1.15,2013-01-24 04:15:00,
2013-01-23 23:20:00,13.9,11.3,30.20,North,4,15.0,15.0,89,0.00,,,0.00,Wunderground v.1.15,2013-01-24 04:20:00,
2013-01-23 23:25:00,13.7,11.1,30.20,NNE,15,13.0,15.0,89,0.00,,,0.00,Wunderground v.1.15,2013-01-24 04:25:00,
2013-01-23 23:30:00,13.5,10.9,30.20,NNE,18,13.0,13.0,89,0.00,,,0.00,Wunderground v.1.15,2013-01-24 04:30:00,
2013-01-23 23:35:00,13.4,10.8,30.21,NNW,340,12.0,13.0,89,0.00,,,0.00,Wunderground v.1.15,2013-01-24 04:35:00,
2013-01-23 23:40:00,13.3,10.7,30.21,NNE,24,12.0,12.0,89,0.00,,,0.00,Wunderground v.1.15,2013-01-24 04:40:00,
2013-01-23 23:45:00,13.2,10.6,30.22,NE,39,12.0,12.0,89,0.00,,,0.00,Wunderground v.1.15,2013-01-24 04:45:00,
2013-01-23 23:55:00,13.1,10.5,30.22,North,11,10.0,13.0,89,0.00,,,0.00,Wunderground v.1.15,2013-01-24 04:55:00,